Wind_Speed
11 11 11 12 13 13 13 14 13 13 13 13 13 14 14 14 14 15 15 16 16 17 17 18 19 20 20 20 21 22 23 23 24 25 26 27 27 27
11 12 12 13 14 14 14 14 14 14 14 14 15 15 15 14 14 15 15 16 16 17 17 19 20 21 21 22 23 23 24 24 25 26 27 28 29 29
12 13 13 13 14 14 14 14 14 14 14 15 16 16 15 16 16 16 17 17 18 18 19 19 20 21 21 22 23 23 24 25 26 27 28 29 30 30
13 13 13 13 14 14 14 14 14 14 14 15 15 16 16 17 17 17 17 18 19 19 20 21 21 22 22 23 23 24 25 26 26 27 28 28 29 29
14 14 14 14 14 15 15 15 15 15 15 16 16 17 17 17 17 17 17 18 19 20 21 22 23 24 24 25 25 26 27 27 28 29 29 29 30 30
14 14 15 15 16 16 15 15 15 16 16 16 17 16 17 17 17 18 19 19 20 21 22 23 24 24 25 26 27 28 28 29 29 30 30 31 32 32
16 15 15 16 16 16 16 16 16 16 16 15 16 16 17 17 18 19 19 21 22 22 23 24 25 26 26 26 27 28 29 30 30 31 31 32 33 33
17 16 16 16 17 17 17 16 16 16 16 16 16 16 17 18 18 19 20 21 22 23 24 25 26 26 27 28 28 28 29 30 31 31 32 32 33 32
17 17 17 17 17 17 17 17 17 17 17 17 17 17 18 19 20 21 22 22 24 24 25 26 26 27 27 29 29 29 30 30 31 31 31 32 32 32
18 18 18 18 17 17 18 18 18 18 19 19 19 19 20 21 22 22 23 24 25 25 26 27 28 29 28 28 29 29 30 30 30 30 31 31 31 31
19 19 19 19 19 19 19 20 20 20 20 20 21 21 22 22 23 23 24 25 26 27 27 28 29 30 29 29 30 30 30 30 31 31 31 31 31 30
20 21 21 20 21 21 21 21 21 21 22 22 22 23 23 24 24 25 26 27 28 28 28 29 30 31 31 31 30 30 31 31 32 32 32 32 32 32
23 23 23 22 22 22 22 23 23 22 23 23 23 24 25 25 26 26 27 28 29 29 29 30 31 32 32 32 32 32 33 33 33 34 34 34 34 34
24 24 23 23 23 24 24 24 24 24 24 24 25 25 26 27 27 28 29 29 30 30 31 31 32 33 33 33 33 34 34 34 34 34 35 35 35 34
26 25 24 24 25 26 26 25 25 25 25 26 26 27 27 28 29 29 29 30 31 32 33 33 33 33 33 34 35 35 35 35 35 35 35 35 35 35
26 26 25 25 25 26 26 26 27 27 27 28 28 29 29 30 30 31 31 32 32 33 33 34 34 34 35 35 36 36 36 36 35 35 35 35 35 34
26 26 26 26 26 26 27 27 28 29 29 30 30 30 31 31 32 32 33 33 34 34 34 35 35 35 35 35 36 36 36 35 35 36 35 35 34 34
27 27 27 27 28 28 28 29 30 30 31 31 32 32 32 33 34 34 34 34 35 35 35 35 35 36 36 36 37 37 36 36 36 36 35 34 34 33
29 28 28 29 29 30 30 30 31 31 32 32 32 33 33 34 35 35 35 35 35 35 35 35 35 35 36 36 37 37 37 36 35 35 34 33 33 32
31 30 30 30 31 31 31 32 32 32 33 33 33 34 34 34 35 35 35 35 34 34 35 35 35 35 36 36 36 36 36 35 34 34 34 33 32 32
32 32 32 32 32 32 33 33 33 33 34 34 34 35 35 35 35 35 35 35 35 35 35 35 35 35 36 36 36 35 35 34 34 34 34 33 32 32
33 33 33 33 33 34 34 34 34 34 34 35 35 36 35 35 35 35 35 35 35 35 34 35 35 36 36 36 36 35 34 34 34 34 34 34 33 33
34 34 34 34 34 34 34 34 35 35 35 35 36 35 35 34 34 34 35 35 35 36 36 36 36 36 36 36 35 35 35 34 34 33 33 33 33 33
Wind_Direction
319 315 314 313 313 312 310 309 313 313 310 310 311 313 310 309 310 311 309 309 306 303 301 301 301 301 299 298 294 292 291 289 289 288 288 288 289 290
319 315 313 312 312 313 311 309 310 312 308 308 309 310 312 311 309 309 312 311 311 309 310 309 306 303 302 301 297 295 294 293 291 291 289 289 289 290
319 317 316 315 315 316 315 313 312 311 309 308 309 310 311 310 310 309 310 310 312 311 310 311 312 309 305 301 301 299 297 295 294 293 293 293 292 291
322 320 318 317 316 317 315 314 312 312 310 309 309 308 309 309 310 310 310 310 311 311 311 311 310 309 309 306 304 303 300 299 298 298 296 295 295 293
323 323 320 318 318 316 313 311 310 310 310 309 309 308 308 310 312 312 312 313 313 312 313 312 310 308 308 307 305 303 303 302 300 299 298 296 296 295
322 321 319 317 318 317 314 312 311 310 310 311 311 310 310 311 311 312 312 312 312 312 312 313 311 311 310 309 306 304 303 302 302 301 298 297 297 295
322 321 318 316 316 316 315 314 312 311 312 313 314 313 313 313 313 313 313 314 314 314 314 314 313 312 312 311 308 306 305 304 304 303 302 300 298 297
319 319 319 317 314 313 314 313 313 313 314 314 314 313 313 314 315 314 315 315 315 316 315 315 316 315 314 312 311 310 309 307 306 304 302 302 302 299
317 318 317 318 316 314 313 313 313 313 311 311 310 310 311 313 312 312 314 315 315 316 317 317 316 315 313 312 312 312 311 310 309 307 306 305 304 303
316 315 315 315 314 313 312 312 312 311 311 311 310 310 311 312 313 313 314 314 315 316 317 317 317 316 315 314 313 312 312 312 311 311 309 309 307 306
313 312 312 312 310 310 310 309 309 309 309 310 309 309 310 310 311 311 312 313 314 315 316 317 318 318 317 317 315 313 312 312 312 312 311 311 309 306
311 310 309 309 308 308 308 308 308 307 307 308 308 309 308 308 308 309 311 312 312 312 313 315 316 316 316 316 315 313 313 313 312 312 311 311 309 307
308 306 306 306 306 305 306 306 307 307 307 307 306 306 307 307 307 308 310 310 310 311 312 313 314 315 315 314 315 314 313 312 312 312 311 310 309 307
305 304 305 305 305 305 304 304 305 305 305 305 305 305 305 306 306 308 308 309 310 311 311 312 312 313 313 313 313 314 314 313 312 311 310 309 309 307
304 302 303 304 304 304 304 304 303 304 303 304 304 304 303 304 305 305 305 306 308 309 310 310 310 311 311 311 312 313 313 313 311 310 310 309 308 307
305 303 302 302 303 303 303 303 303 303 303 303 303 303 304 304 304 305 305 306 307 308 308 309 309 310 310 311 312 313 313 312 311 311 310 310 309 308
306 303 302 301 302 304 304 303 303 303 304 303 303 302 303 304 304 303 304 306 307 307 307 307 307 308 309 309 310 311 311 312 312 312 312 311 309 307
306 303 301 301 301 300 301 303 304 304 304 304 303 302 302 303 304 305 305 306 306 306 306 306 307 307 308 309 310 311 311 311 311 312 312 311 310 308
305 303 302 302 302 301 301 301 303 304 304 304 304 303 303 303 303 305 306 306 306 306 306 307 307 308 309 309 310 311 311 311 311 312 312 311 310 309
304 304 303 302 302 302 302 302 302 302 304 304 305 305 305 304 304 305 305 306 307 306 306 307 308 308 309 310 310 310 311 312 313 312 312 311 311 311
301 302 303 303 303 302 302 302 302 302 303 304 304 304 304 304 304 304 304 304 305 304 305 305 307 308 309 310 310 310 311 312 312 312 312 312 311 311
300 302 302 302 302 302 302 302 302 302 303 304 304 304 303 303 304 304 303 304 304 304 304 305 307 308 308 309 310 310 311 311 311 311 311 311 310 310
300 301 301 301 300 301 302 302 302 302 303 303 304 305 304 303 304 304 304 304 305 305 305 305 306 307 308 309 309 309 309 310 310 309 309 309 308 309
Height
5881 5879 5878 5877 5875 5874 5873 5871 5870 5868 5867 5865 5864 5863 5861 5859 5858 5856 5854 5852 5851 5849 5848 5846 5844 5842 5840 5838 5837 5835 5834 5832 5831 5829 5827 5825 5824 5822
5879 5877 5876 5874 5873 5871 5870 5868 5867 5866 5863 5862 5861 5859 5858 5856 5854 5853 5851 5849 5847 5845 5843 5841 5839 5837 5835 5833 5831 5829 5827 5825 5823 5821 5819 5817 5815 5814
5877 5875 5873 5871 5870 5868 5867 5865 5864 5862 5861 5859 5858 5856 5854 5853 5851 5849 5847 5845 5843 5841 5839 5836 5834 5831 5829 5827 5824 5822 5820 5818 5816 5814 5811 5809 5807 5805
5874 5872 5871 5869 5868 5866 5864 5862 5861 5859 5858 5856 5854 5853 5851 5849 5847 5845 5844 5841 5839 5837 5834 5832 5829 5826 5824 5821 5819 5816 5814 5811 5809 5806 5804 5801 5799 5796
5872 5870 5868 5866 5865 5863 5861 5860 5858 5856 5855 5853 5851 5849 5847 5845 5843 5841 5839 5837 5835 5832 5830 5827 5824 5821 5818 5815 5812 5810 5807 5804 5802 5799 5796 5793 5790 5787
5870 5867 5866 5864 5862 5860 5858 5856 5855 5853 5851 5849 5847 5845 5843 5841 5839 5837 5835 5833 5830 5828 5825 5822 5818 5815 5812 5809 5806 5803 5800 5797 5794 5791 5787 5785 5782 5779
5867 5865 5863 5861 5859 5857 5855 5853 5851 5849 5847 5845 5843 5841 5839 5837 5836 5833 5831 5828 5825 5822 5819 5816 5813 5810 5807 5803 5800 5796 5793 5789 5786 5783 5779 5776 5773 5769
5865 5863 5860 5858 5856 5854 5852 5850 5848 5846 5844 5842 5840 5838 5836 5833 5831 5829 5826 5824 5821 5818 5814 5811 5807 5803 5800 5796 5793 5789 5786 5782 5778 5775 5771 5768 5764 5760
5861 5859 5857 5855 5853 5851 5848 5846 5844 5842 5840 5838 5836 5834 5831 5829 5826 5824 5821 5818 5815 5812 5808 5805 5801 5798 5794 5790 5786 5782 5778 5774 5771 5767 5763 5759 5756 5752
5858 5856 5854 5852 5849 5847 5845 5843 5840 5838 5836 5834 5831 5829 5826 5824 5821 5818 5815 5812 5809 5806 5803 5799 5795 5792 5788 5783 5779 5775 5771 5767 5763 5759 5755 5751 5747 5744
5854 5852 5850 5848 5845 5843 5841 5838 5836 5834 5831 5829 5826 5824 5821 5819 5816 5813 5810 5807 5803 5800 5796 5793 5789 5785 5780 5777 5772 5768 5764 5760 5756 5752 5747 5743 5740 5736
5850 5847 5845 5843 5840 5838 5836 5834 5831 5829 5826 5824 5821 5819 5816 5813 5810 5807 5804 5801 5797 5794 5790 5786 5782 5778 5774 5770 5766 5761 5757 5753 5748 5744 5740 5735 5731 5728
5845 5843 5840 5838 5835 5833 5830 5828 5826 5823 5821 5819 5816 5813 5810 5807 5804 5801 5797 5794 5790 5787 5783 5779 5775 5771 5767 5762 5758 5754 5750 5745 5741 5736 5731 5727 5723 5719
5839 5837 5835 5832 5830 5827 5825 5822 5820 5817 5815 5812 5810 5807 5804 5801 5797 5794 5790 5787 5783 5780 5775 5771 5767 5763 5759 5754 5750 5746 5741 5736 5732 5727 5723 5718 5714 5710
5833 5831 5829 5826 5824 5821 5819 5816 5813 5811 5808 5805 5803 5800 5797 5793 5790 5787 5783 5779 5775 5771 5767 5763 5759 5755 5751 5746 5742 5737 5733 5728 5723 5719 5714 5710 5705 5701
5827 5824 5822 5820 5817 5815 5812 5809 5807 5804 5801 5798 5795 5792 5789 5785 5782 5779 5775 5772 5768 5764 5760 5755 5751 5746 5742 5738 5733 5728 5724 5719 5714 5710 5705 5701 5696 5692
5820 5817 5815 5813 5811 5808 5805 5803 5800 5797 5794 5791 5787 5784 5781 5777 5774 5770 5767 5763 5759 5755 5751 5747 5742 5738 5733 5729 5724 5720 5715 5710 5706 5701 5696 5691 5687 5683
5813 5811 5808 5806 5803 5801 5798 5795 5792 5789 5786 5782 5779 5775 5772 5768 5765 5761 5757 5753 5750 5745 5742 5738 5733 5729 5725 5720 5716 5711 5706 5701 5697 5692 5687 5682 5678 5674
5806 5803 5801 5798 5795 5792 5789 5787 5784 5781 5777 5774 5770 5767 5763 5759 5755 5752 5748 5744 5740 5736 5732 5728 5724 5720 5716 5711 5706 5701 5697 5692 5687 5683 5678 5674 5670 5666
5798 5795 5793 5790 5787 5784 5781 5778 5775 5771 5768 5765 5761 5758 5754 5750 5746 5742 5738 5735 5731 5726 5723 5718 5714 5710 5706 5702 5698 5693 5688 5683 5679 5674 5670 5665 5661 5657
5790 5787 5784 5781 5778 5775 5772 5769 5766 5762 5759 5755 5752 5748 5744 5740 5737 5733 5729 5725 5721 5717 5714 5709 5705 5701 5696 5692 5689 5684 5679 5674 5670 5666 5661 5657 5653 5649
5781 5778 5775 5772 5769 5766 5763 5759 5756 5753 5749 5746 5742 5738 5734 5731 5727 5723 5719 5716 5712 5708 5704 5700 5696 5691 5687 5683 5679 5675 5671 5666 5662 5657 5653 5648 5644 5640
5772 5769 5766 5763 5760 5756 5753 5750 5747 5743 5740 5736 5732 5728 5725 5721 5718 5714 5710 5706 5702 5698 5694 5690 5686 5682 5678 5673 5669 5665 5661 5657 5653 5649 5645 5640 5636 5631